Regional Weather Roundup
Issued by NWS State College, PA

Home | Current Version | Previous Version | Text Only | Print | Product List | Glossary On
Versions: 1 2 3 4 5 6 7 8 9 10 11 12 13 14 15 16 17 18 19 20 21 22 23 24 25 26 27 28 29 30 31 32 33 34 35 36 37 38 39 40 41 42 43 44 45 46 47 48 49 50
000
ASUS41 KCTP 172103
RWRCTP

REGIONAL WEATHER ROUNDUP
NATIONAL WEATHER SERVICE STATE COLLEGE PA
500 PM EDT WED SEP 17 2014

Note: "fair" indicates few or no clouds below 12,000 feet with no
significant weather and/or obstructions to visibility.

* = STATION THAT DOES NOT REPORT PRECIPITATION /E.G. RAIN...SNOW...ETC/
    THUNDER OR FOG.

PAZ002>004-007>009-013>016-020>023-029>032-172200-
WESTERN PENNSYLVANIA

CITY           SKY/WX    TMP DP  RH WIND       PRES   REMARKS
ERIE           SUNNY     67  48  50 W9        29.99S
MEADVILLE      MOSUNNY   64  45  49 VRB6      30.00S
FRANKLIN*      MOSUNNY   63  45  51 W5        30.01S
NEW CASTLE     FAIR      69  47  45 SW8       30.00S
BEAVER COUNTY  PTSUNNY   68  46  45 NW7       30.00S
BUTLER*        MOSUNNY   66  46  48 W5        30.01F
PITTSBURGH INT PTSUNNY   67  47  48 W3        29.98S
PITTSBURGH     MOSUNNY   68  46  45 W9        29.98S
INDIANA*       PTSUNNY   66  48  52 W6        30.02S
LATROBE        MOSUNNY   68  50  52 W7        29.99S
WASHINGTON CO* PTSUNNY   68  50  52 NW6       29.99S
$$

PAZ004>006-010>012-017>019-024>028-033>037-041-042-045-046-049>053-172200-
CENTRAL PENNSYLVANIA

CITY           SKY/WX    TMP DP  RH WIND       PRES   REMARKS
BRADFORD       SUNNY     63  40  42 NW5       30.00S
DUBOIS         MOSUNNY   64  45  49 W7        29.99S
CLEARFIELD     MOSUNNY   65  45  48 W5        29.99S
JOHNSTOWN      PTSUNNY   64  44  48 W6        30.00R
ALTOONA        MOSUNNY   68  47  46 CALM      29.99S
STATE COLLEGE  MOSUNNY   66  48  52 S9        29.97F
WILLIAMSPORT   MOSUNNY   69  46  43 SW7       29.96S
SELINSGROVE    MOSUNNY   68  46  45 SW6       29.98S
FT INDIANTOWN  SUNNY     71  45  38 W5        29.98S
CAPITAL CITY   PTSUNNY   71  44  37 NE5       29.97S
HARRISBURG     MOSUNNY   73  50  44 VRB3      29.96S
YORK           MOSUNNY   71  47  42 CALM      29.97S
$$

PAZ038>040-043-044-047-048-054-055-060>062-067>071-172200-
EASTERN PENNSYLVANIA

CITY           SKY/WX    TMP DP  RH WIND       PRES   REMARKS
SCRANTON       MOSUNNY   67  41  38 SW10      29.98R
MOUNT POCONO   MOSUNNY   64  40  41 W10       30.00R
ALLENTOWN      SUNNY     71  43  36 W7        29.97S
QUAKERTOWN*    MOCLDY    68  46  45 CALM      29.98F
READING        PTSUNNY   73  46  38 W6        29.96S
LANCASTER      MOSUNNY   72  45  37 N8        29.97S
COATESVILLE    MOCLDY    70  48  46 SW5       29.99S
POTTSTOWN      CLOUDY    71  49  45 NW3       29.99S
BLUE BELL      MOSUNNY   72  46  40 CALM      29.96S
DOYLESTOWN     MOSUNNY   71  46  40 W6        29.97S
WILLOW GROVE   NOT AVBL
NORTH PHILA    MOSUNNY   76  43  30 NW6       29.98S
PHILADELPHIA   MOSUNNY   74  46  36 CALM      29.97S
$$


USA.gov is the U.S. government's official web portal to all federal, state and local government web resources and services.